Hourly Data

Hourly Data Report for March 13, 2012

All times are specified in Local Standard Time (LST). Add 1 hour to adjust for Daylight Saving Time where and when it is observed.

Metadata including Station Name, Province, Latitude, Longitude, Elevation, Climate ID, WMO ID, TC ID
ST-JOVITE
QUEBEC
Latitude: 46°04'49.000" N Longitude: 74°33'21.000" W Elevation: 238.50 m
Climate ID: 703GDKB WMO ID: 71376 TC ID: WJT
Hourly Data Report for March 13, 2012
Temp Definition
°C

Dew Point Temp Definition
°C

Rel Hum Definition
%

Wind Dir Definition
10's deg
Wind Spd Definition
km/h

Visibility Definition
km

Stn Press Definition
kPa

Hmdx Definition

Wind Chill Definition

Weather Definition

TIME
00:00 6.1 -0.9 61 11 7 98.68 LegendNANA
01:00 5.7 -0.7 63 10 7 98.60 LegendNANA
02:00 5.5 -0.5 65 11 7 98.51 LegendNANA
03:00 6.0 -0.1 65 8 6 98.31 LegendNANA
04:00 5.1 0.9 74 1 4 98.22 LegendNANA
05:00 4.7 3.1 89 14 4 98.19 LegendNANA
06:00 4.0 3.5 97 6 6 98.11 LegendNANA
07:00 3.6 3.2 97 5 4 98.08 LegendNANA
08:00 3.7 3.5 99 5 6 98.08 LegendNANA
09:00 3.9 3.7 99 8 2 98.06 LegendNANA
10:00 5.0 4.7 98   0 98.06 LegendNANA
11:00 6.0 5.4 96 23 2 98.07 LegendNANA
12:00 7.1 6.6 97 23 6 98.12 LegendNANA
13:00 8.2 7.1 93 20 4 98.08 LegendNANA
14:00 9.0 7.0 87 20 2 98.07 LegendNANA
15:00 6.8 6.2 96 12 2 98.08 LegendNANA
16:00 6.0 5.6 97 8 4 98.09 LegendNANA
17:00 5.4 5.0 97 7 2 98.11 LegendNANA
18:00 3.6 3.3 98 7 2 98.15 LegendNANA
19:00 2.6 2.4 99 1 2 98.23 LegendNANA
20:00 2.5 2.4 99 9 2 98.32 LegendNANA
21:00 0.6 0.6 100 7 2 98.36 LegendNANA
22:00 -0.4 -0.4 100 8 4 98.37 -2 LegendNANA
23:00 -0.4 -0.4 100   0 98.39 LegendNANA

Notes on Data Quality.

Legend
  • M = Missing
  • E = Estimated
  • NA = Not Available
  • ‡ = Partner data that is not subject to review by the National Climate Archives